| time (UTC) | temp F | wind direction | speed knots | gust knots | rain 1hr in | rain 24hr in | rain mn in | humidity % | barometer mb |
| 20260906200904 | 90 | 164 | 7.8 | 8.7 | 0.00 | 1.29 | 1.29 | 56 | 1014.2 |
| 20260906200400 | 89 | 195 | 1.7 | 1.7 | 0.00 | 1.29 | 1.29 | 56 | 1014.1 |
| 20260906195900 | 90 | 219 | 3.5 | 4.3 | 0.00 | 1.29 | 1.29 | 57 | 1014.4 |
| 20260906195356 | 89 | 166 | 0.9 | 1.7 | 0.00 | 1.29 | 1.29 | 57 | 1014.3 |
| 20260906194852 | 89 | 153 | 3.5 | 7.0 | 0.00 | 1.29 | 1.29 | 57 | 1014.5 |
| 20260906194348 | 88 | 117 | 5.2 | 7.0 | 0.00 | 1.29 | 1.29 | 58 | 1014.5 |
| 20260906193842 | 88 | 242 | 2.6 | 2.6 | 0.00 | 1.29 | 1.29 | 59 | 1014.7 |
| 20260906193338 | 87 | 72 | 4.3 | 7.0 | 0.00 | 1.29 | 1.29 | 61 | 1014.6 |
| 20260906192833 | 87 | 80 | 3.5 | 7.0 | 0.00 | 1.29 | 1.29 | 60 | 1014.2 |
| 20260906192327 | 87 | 100 | 1.7 | 4.3 | 0.00 | 1.29 | 1.29 | 61 | 1014.4 |
| 20260906191826 | 87 | 156 | 4.3 | 7.0 | 0.00 | 1.29 | 1.29 | 60 | 1014.5 |
| 20260906191321 | 85 | 189 | 1.7 | 1.7 | 0.00 | 1.29 | 1.29 | 64 | 1014.4 |
| 20260906190816 | 85 | 138 | 4.3 | 7.0 | 0.00 | 1.29 | 1.29 | 63 | 1014.6 |
| 20260906190315 | 83 | 161 | 3.5 | 4.3 | 0.00 | 1.29 | 1.29 | 64 | 1014.8 |
| 20260906185815 | 82 | 140 | 2.6 | 2.6 | 0.00 | 1.29 | 1.29 | 65 | 1014.8 |
| 20260906185314 | 82 | 158 | 0.9 | 1.7 | 0.00 | 1.29 | 1.29 | 68 | 1014.7 |
| 20260906184809 | 82 | 153 | 3.5 | 5.2 | 0.00 | 1.29 | 1.29 | 67 | 1014.8 |
| 20260906184304 | 84 | 166 | 5.2 | 7.0 | 0.00 | 1.29 | 1.29 | 64 | 1014.8 |
| 20260906183759 | 84 | 184 | 5.2 | 7.0 | 0.00 | 1.29 | 1.29 | 63 | 1014.8 |
| 20260906183256 | 85 | 155 | 2.6 | 5.2 | 0.00 | 1.29 | 1.29 | 63 | 1015.0 |
| 20260906182755 | 85 | 139 | 6.1 | 7.8 | 0.00 | 1.29 | 1.29 | 62 | 1015.0 |
| 20260906182251 | 84 | 129 | 6.1 | 7.0 | 0.00 | 1.29 | 1.29 | 64 | 1014.7 |
| 20260906181746 | 84 | 163 | 4.3 | 5.2 | 0.00 | 1.29 | 1.29 | 64 | 1015.0 |
| 20260906181242 | 84 | 172 | 2.6 | 5.2 | 0.00 | 1.29 | 1.29 | 64 | 1015.1 |
| 20260906180737 | 84 | 157 | 5.2 | 7.8 | 0.00 | 1.29 | 1.29 | 62 | 1015.0 |
| 20260906180232 | 84 | 189 | 0.9 | 0.9 | 0.00 | 1.29 | 1.29 | 64 | 1014.8 |
| 20260906175729 | 83 | 150 | 4.3 | 7.0 | 0.00 | 1.29 | 1.29 | 63 | 1014.8 |
| 20260906175225 | 83 | 175 | 3.5 | 5.2 | 0.00 | 1.29 | 1.29 | 62 | 1015.2 |
| 20260906174724 | 83 | 112 | 6.1 | 9.6 | 0.00 | 1.29 | 1.29 | 63 | 1015.0 |
| 20260906174218 | 83 | 164 | 10.4 | 14.8 | 0.00 | 1.29 | 1.29 | 62 | 1015.0 |
| 20260906173713 | 83 | 119 | 4.3 | 5.2 | 0.00 | 1.29 | 1.29 | 64 | 1014.8 |
| 20260906173209 | 82 | 105 | 1.7 | 2.6 | 0.00 | 1.29 | 1.29 | 64 | 1015.3 |
| 20260906172703 | 82 | 229 | 4.3 | 6.1 | 0.00 | 1.29 | 1.29 | 66 | 1015.2 |
| 20260906172158 | 82 | 131 | 7.8 | 12.2 | 0.00 | 1.29 | 1.29 | 63 | 1015.2 |
| 20260906171658 | 81 | 220 | 4.3 | 7.8 | 0.00 | 1.29 | 1.29 | 66 | 1014.8 |
| 20260906171154 | 82 | 180 | 5.2 | 7.0 | 0.00 | 1.29 | 1.29 | 65 | 1015.1 |
| 20260906170650 | 82 | 194 | 4.3 | 7.0 | 0.00 | 1.29 | 1.29 | 66 | 1015.0 |
| 20260906170149 | 81 | 201 | 1.7 | 2.6 | 0.00 | 1.29 | 1.29 | 67 | 1014.8 |
| 20260906165646 | 80 | 147 | 4.3 | 7.8 | 0.00 | 1.29 | 1.29 | 67 | 1015.1 |
| 20260906165141 | 79 | 155 | 4.3 | 7.0 | 0.00 | 1.29 | 1.29 | 69 | 1014.8 |
| 20260906164639 | 80 | 165 | 1.7 | 1.7 | 0.00 | 1.29 | 1.29 | 69 | 1015.0 |
| 20260906164135 | 80 | 181 | 4.3 | 7.0 | 0.00 | 1.29 | 1.29 | 67 | 1015.0 |
| 20260906163631 | 78 | 210 | 0.9 | 1.7 | 0.00 | 1.29 | 1.29 | 71 | 1015.1 |
| 20260906163127 | 79 | 190 | 2.6 | 2.6 | 0.00 | 1.29 | 1.29 | 68 | 1014.8 |
| 20260906162624 | 80 | 106 | 4.3 | 6.1 | 0.00 | 1.29 | 1.29 | 66 | 1014.8 |
| 20260906162118 | 78 | 121 | 2.6 | 2.6 | 0.00 | 1.29 | 1.29 | 69 | 1015.0 |
| 20260906161618 | 77 | 117 | 2.6 | 4.3 | 0.00 | 1.29 | 1.29 | 73 | 1015.0 |
| 20260906161117 | 75 | 102 | 1.7 | 1.7 | 0.00 | 1.29 | 1.29 | 75 | 1015.0 |
| 20260906160616 | 73 | 177 | 4.3 | 6.1 | 0.00 | 1.29 | 1.29 | 78 | 1014.8 |
| 20260906160115 | 72 | 162 | 6.1 | 7.8 | 0.00 | 1.29 | 1.29 | 78 | 1015.0 |
| 20260906155613 | 71 | 205 | 3.5 | 5.2 | 0.00 | 1.29 | 1.29 | 80 | 1014.6 |
| 20260906155109 | 71 | 148 | 3.5 | 6.1 | 0.00 | 1.29 | 1.29 | 80 | 1014.8 |
| 20260906154604 | 70 | 171 | 3.5 | 6.1 | 0.00 | 1.29 | 1.29 | 81 | 1015.0 |
| 20260906154102 | 70 | 266 | 2.6 | 4.3 | 0.00 | 1.29 | 1.29 | 81 | 1014.7 |
| 20260906153601 | 70 | 160 | 5.2 | 8.7 | 0.00 | 1.29 | 1.29 | 81 | 1015.0 |
| 20260906153057 | 69 | 147 | 4.3 | 7.0 | 0.00 | 1.29 | 1.29 | 82 | 1014.8 |
| 20260906152557 | 69 | 163 | 2.6 | 4.3 | 0.00 | 1.29 | 1.29 | 84 | 1015.1 |
| 20260906152051 | 69 | 142 | 1.7 | 2.6 | 0.00 | 1.29 | 1.29 | 83 | 1014.7 |
| 20260906151546 | 68 | 203 | 5.2 | 7.8 | 0.00 | 1.29 | 1.29 | 84 | 1014.3 |
| 20260906151042 | 67 | 147 | 7.0 | 11.3 | 0.00 | 1.29 | 1.29 | 87 | 1014.6 |
| 20260906150537 | 67 | 165 | 4.3 | 7.0 | 0.00 | 1.29 | 1.29 | 90 | 1014.6 |
| 20260906150032 | 66 | 194 | 3.5 | 4.3 | 0.00 | 1.29 | 1.29 | 91 | 1013.7 |
| 20260906145531 | 66 | 153 | 7.0 | 13.9 | 0.00 | 1.29 | 1.29 | 91 | 1013.4 |
| 20260906145026 | 66 | 120 | 9.6 | 17.4 | 0.07 | 1.29 | 1.29 | 93 | 1013.6 |
| 20260906144520 | 66 | 144 | 7.8 | 11.3 | 0.12 | 1.29 | 1.29 | 94 | 1013.9 |
| 20260906144016 | 65 | 175 | 10.4 | 19.1 | 0.05 | 1.28 | 1.28 | 95 | 1014.7 |
| 20260906143511 | 65 | 201 | 7.8 | 11.3 | 0.05 | 1.28 | 1.28 | 95 | 1015.9 |
| 20260906143007 | 65 | 110 | 4.3 | 6.1 | 0.07 | 1.27 | 1.27 | 96 | 1016.9 |
| 20260906142501 | 66 | 47 | 3.5 | 5.2 | 0.07 | 1.27 | 1.27 | 96 | 1017.0 |
| 20260906141955 | 65 | 159 | 5.2 | 7.8 | 0.05 | 1.26 | 1.26 | 96 | 1017.2 |
| 20260906141449 | 65 | 159 | 6.1 | 7.8 | 0.05 | 1.26 | 1.26 | 97 | 1017.3 |
| 20260906140944 | 65 | 193 | 5.2 | 7.8 | 0.07 | 1.25 | 1.25 | 97 | 1017.2 |
| 20260906140438 | 66 | 176 | 5.2 | 7.8 | 0.07 | 1.25 | 1.25 | 98 | 1017.9 |
| 20260906135931 | 66 | 144 | 4.3 | 6.1 | 0.05 | 1.24 | 1.24 | 98 | 1018.4 |
| 20260906135430 | 66 | 147 | 4.3 | 6.1 | 0.05 | 1.24 | 1.24 | 98 | 1018.9 |
| 20260906134926 | 66 | 200 | 2.6 | 2.6 | 0.07 | 1.23 | 1.23 | 98 | 1019.1 |
| 20260906134421 | 66 | 190 | 2.6 | 5.2 | 0.07 | 1.23 | 1.23 | 98 | 1019.1 |
| 20260906133916 | 66 | 158 | 0.9 | 0.9 | 0.07 | 1.22 | 1.22 | 98 | 1019.2 |
| 20260906133412 | 66 | 137 | 0.9 | 0.9 | 0.12 | 1.22 | 1.22 | 98 | 1018.9 |
| 20260906132907 | 66 | 142 | 1.7 | 1.7 | 0.12 | 1.21 | 1.21 | 98 | 1018.9 |
| 20260906132403 | 66 | 155 | 1.7 | 1.7 | 0.12 | 1.21 | 1.21 | 98 | 1019.0 |
| 20260906131858 | 66 | 128 | 0.0 | 0.9 | 0.05 | 1.19 | 1.19 | 98 | 1019.0 |
| 20260906131353 | 66 | 160 | 0.0 | 0.0 | 0.05 | 1.19 | 1.19 | 98 | 1018.8 |
| 20260906130849 | 66 | 217 | 0.0 | 0.9 | 0.12 | 1.18 | 1.18 | 98 | 1019.4 |
| 20260906130348 | 66 | 77 | 0.0 | 0.0 | 0.12 | 1.18 | 1.18 | 98 | 1019.0 |
| 20260906125848 | 66 | 145 | 0.0 | 0.9 | 0.12 | 1.16 | 1.16 | 98 | 1019.0 |
| 20260906125345 | 66 | 40 | 0.0 | 0.0 | 0.35 | 1.16 | 1.16 | 98 | 1019.0 |
| 20260906124839 | 66 | 166 | 0.0 | 0.9 | 0.50 | 1.14 | 1.14 | 98 | 1019.4 |
| 20260906124336 | 66 | 178 | 0.9 | 0.9 | 0.42 | 1.11 | 1.11 | 98 | 1019.2 |
| 20260906123835 | 66 | 124 | 0.0 | 0.0 | 0.28 | 1.06 | 1.06 | 98 | 1018.8 |
| 20260906123330 | 66 | 103 | 0.9 | 0.9 | 0.24 | 1.03 | 1.03 | 98 | 1018.4 |
| 20260906122829 | 65 | 108 | 0.0 | 0.0 | 0.19 | 1.01 | 1.01 | 98 | 1018.4 |
| 20260906122324 | 65 | 115 | 0.0 | 0.0 | 0.17 | 1.00 | 1.00 | 98 | 1018.1 |
| 20260906121821 | 65 | 155 | 0.0 | 0.9 | 0.12 | 0.98 | 0.98 | 98 | 1018.0 |
| 20260906121317 | 65 | 68 | 0.9 | 0.9 | 0.07 | 0.97 | 0.97 | 98 | 1018.1 |
| 20260906120813 | 65 | 43 | 0.9 | 0.9 | 0.12 | 0.96 | 0.96 | 98 | 1018.0 |
| 20260906120309 | 65 | 184 | 0.0 | 0.0 | 0.19 | 0.96 | 0.96 | 98 | 1017.7 |
| 20260906115804 | 65 | 28 | 1.7 | 1.7 | 0.12 | 0.94 | 0.94 | 97 | 1018.0 |
| 20260906115254 | 65 | 38 | 1.7 | 2.6 | 0.28 | 0.93 | 0.93 | 97 | 1018.1 |
| 20260906114753 | 65 | 30 | 2.6 | 4.3 | 0.85 | 0.92 | 0.92 | 97 | 1018.2 |
| 20260906114249 | 66 | 7 | 2.6 | 2.6 | 0.85 | 0.88 | 0.88 | 97 | 1018.2 |
| 20260906113744 | 66 | 15 | 0.9 | 0.9 | 0.35 | 0.78 | 0.78 | 97 | 1018.5 |
| 20260906113243 | 66 | 325 | 0.9 | 1.7 | 0.19 | 0.74 | 0.74 | 97 | 1018.7 |
| 20260906112743 | 66 | 14 | 4.3 | 5.2 | 0.19 | 0.73 | 0.73 | 97 | 1018.3 |
| 20260906112239 | 66 | 47 | 1.7 | 2.6 | 0.19 | 0.72 | 0.72 | 97 | 1018.0 |
| 20260906111738 | 66 | 347 | 6.1 | 7.8 | 0.12 | 0.70 | 0.70 | 97 | 1017.9 |
| 20260906111232 | 66 | 331 | 6.1 | 7.8 | 0.17 | 0.69 | 0.69 | 97 | 1017.9 |
| 20260906110722 | 66 | 37 | 4.3 | 7.0 | 0.24 | 0.68 | 0.68 | 97 | 1017.9 |
| 20260906110219 | 66 | 351 | 3.5 | 5.2 | 0.42 | 0.66 | 0.66 | 97 | 1018.0 |
| 20260906105717 | 66 | 251 | 1.7 | 2.6 | 0.38 | 0.64 | 0.64 | 97 | 1018.0 |
| 20260906105214 | 66 | 326 | 5.2 | 7.0 | 0.07 | 0.59 | 0.59 | 96 | 1017.9 |
| 20260906104713 | 66 | 9 | 1.7 | 4.3 | 0.05 | 0.58 | 0.58 | 96 | 1017.6 |
| 20260906104213 | 66 | 316 | 7.0 | 8.7 | 0.35 | 0.58 | 0.58 | 96 | 1017.5 |
| 20260906103710 | 67 | 319 | 4.3 | 7.8 | 0.59 | 0.57 | 0.57 | 96 | 1017.3 |
| 20260906103205 | 67 | 26 | 7.0 | 7.8 | 0.50 | 0.53 | 0.53 | 96 | 1016.9 |
| 20260906102701 | 67 | 71 | 2.6 | 4.3 | 0.31 | 0.48 | 0.48 | 96 | 1017.0 |
| 20260906102200 | 67 | 356 | 4.3 | 5.2 | 0.90 | 0.45 | 0.45 | 95 | 1016.9 |
| 20260906101659 | 67 | 300 | 3.5 | 6.1 | 1.37 | 0.43 | 0.43 | 95 | 1016.8 |
| 20260906101155 | 67 | 342 | 5.2 | 7.8 | 0.90 | 0.33 | 0.33 | 94 | 1016.9 |
| 20260906100650 | 68 | 32 | 2.6 | 2.6 | 0.31 | 0.20 | 0.20 | 94 | 1017.1 |
| 20260906100145 | 68 | 288 | 4.3 | 6.1 | 1.02 | 0.18 | 0.18 | 93 | 1017.0 |
| 20260906095640 | 69 | 0 | 7.0 | 9.6 | 0.97 | 0.16 | 0.16 | 91 | 1016.7 |
| 20260906095135 | 70 | 315 | 4.3 | 7.0 | 0.12 | 0.02 | 0.02 | 88 | 1016.3 |
| 20260906094634 | 70 | 344 | 5.2 | 7.0 | 0.00 | 0.00 | 0.00 | 87 | 1016.3 |
| 20260906094130 | 70 | 320 | 5.2 | 11.3 | 0.00 | 0.00 | 0.00 | 86 | 1016.0 |
| 20260906093626 | 71 | 356 | 7.8 | 9.6 | 0.00 | 0.00 | 0.00 | 85 | 1015.8 |
| 20260906093126 | 71 | 332 | 5.2 | 7.0 | 0.00 | 0.00 | 0.00 | 83 | 1015.9 |
| 20260906092621 | 72 | 319 | 4.3 | 7.0 | 0.00 | 0.00 | 0.00 | 83 | 1016.0 |
| 20260906092116 | 72 | 289 | 5.2 | 7.0 | 0.00 | 0.00 | 0.00 | 83 | 1015.5 |
| 20260906091612 | 72 | 326 | 10.4 | 13.9 | 0.00 | 0.00 | 0.00 | 82 | 1015.2 |
| 20260906091109 | 72 | 317 | 6.1 | 7.0 | 0.00 | 0.00 | 0.00 | 84 | 1015.4 |
| 20260906090608 | 72 | 126 | 0.0 | 0.0 | 0.00 | 0.00 | 0.00 | 84 | 1014.2 |
| 20260906090103 | 72 | 88 | 0.0 | 0.0 | 0.00 | 0.00 | 0.00 | 85 | 1014.0 |
| 20260906085602 | 72 | 114 | 0.0 | 0.0 | 0.00 | 0.00 | 0.00 | 85 | 1013.9 |
| 20260906085056 | 72 | 119 | 0.0 | 0.0 | 0.00 | 0.00 | 0.00 | 85 | 1013.9 |
| 20260906084551 | 72 | 119 | 0.0 | 0.0 | 0.00 | 0.00 | 0.00 | 85 | 1013.9 |
| 20260906084050 | 72 | 115 | 0.0 | 0.0 | 0.00 | 0.00 | 0.00 | 84 | 1014.0 |
| 20260906083546 | 72 | 119 | 0.0 | 0.0 | 0.00 | 0.00 | 0.00 | 84 | 1014.2 |
| 20260906083045 | 72 | 84 | 0.9 | 0.9 | 0.00 | 0.00 | 0.00 | 83 | 1013.9 |
| 20260906082541 | 73 | 99 | 0.9 | 0.9 | 0.00 | 0.00 | 0.00 | 83 | 1013.8 |
| 20260906082037 | 73 | 131 | 0.0 | 0.9 | 0.00 | 0.00 | 0.00 | 82 | 1013.8 |
| 20260906081532 | 73 | 150 | 0.0 | 0.0 | 0.00 | 0.00 | 0.00 | 81 | 1013.7 |
| 20260906081027 | 73 | 151 | 0.9 | 1.7 | 0.00 | 0.00 | 0.00 | 81 | 1013.9 |
| 20260906080523 | 73 | 163 | 0.9 | 0.9 | 0.00 | 0.00 | 0.00 | 81 | 1013.9 |
| 20260906080019 | 73 | 166 | 0.9 | 1.7 | 0.00 | 0.00 | 0.00 | 81 | 1013.9 |
| 20260906075514 | 73 | 155 | 1.7 | 1.7 | 0.00 | 0.00 | 0.00 | 80 | 1014.1 |
| 20260906075009 | 73 | 163 | 1.7 | 1.7 | 0.00 | 0.00 | 0.00 | 80 | 1014.1 |
| 20260906074503 | 73 | 143 | 0.9 | 1.7 | 0.00 | 0.00 | 0.00 | 81 | 1014.2 |
| 20260906074002 | 73 | 178 | 0.0 | 0.9 | 0.00 | 0.00 | 0.00 | 82 | 1014.3 |
| 20260906073456 | 73 | 133 | 0.9 | 1.7 | 0.00 | 0.00 | 0.00 | 82 | 1014.1 |
| 20260906072953 | 73 | 135 | 1.7 | 2.6 | 0.00 | 0.00 | 0.00 | 81 | 1014.4 |
| 20260906072448 | 73 | 177 | 0.9 | 2.6 | 0.00 | 0.00 | 0.00 | 81 | 1014.3 |
| 20260906071944 | 73 | 131 | 0.9 | 1.7 | 0.00 | 0.00 | 0.00 | 80 | 1014.3 |
| 20260906071440 | 73 | 154 | 1.7 | 2.6 | 0.00 | 0.00 | 0.00 | 79 | 1014.4 |
| 20260906070935 | 74 | 162 | 0.9 | 1.7 | 0.00 | 0.00 | 0.00 | 78 | 1014.4 |
| 20260906070431 | 74 | 164 | 0.9 | 1.7 | 0.00 | 0.00 | 0.00 | 78 | 1014.5 |
| 20260906065926 | 74 | 153 | 1.7 | 2.6 | 0.00 | 0.00 | 0.00 | 78 | 1014.5 |
| 20260906065421 | 74 | 123 | 0.9 | 1.7 | 0.00 | 0.00 | 0.00 | 78 | 1014.4 |
| 20260906064916 | 74 | 157 | 1.7 | 2.6 | 0.00 | 0.00 | 0.00 | 79 | 1014.6 |
| 20260906064413 | 74 | 131 | 1.7 | 2.6 | 0.00 | 0.00 | 0.00 | 79 | 1014.4 |
| 20260906063913 | 74 | 155 | 1.7 | 1.7 | 0.00 | 0.00 | 0.00 | 77 | 1014.3 |
| 20260906063408 | 74 | 166 | 0.9 | 0.9 | 0.00 | 0.00 | 0.00 | 77 | 1014.2 |
| 20260906062903 | 74 | 139 | 1.7 | 1.7 | 0.00 | 0.00 | 0.00 | 77 | 1014.4 |
| 20260906062402 | 74 | 152 | 0.9 | 0.9 | 0.00 | 0.00 | 0.00 | 77 | 1014.2 |
| 20260906061857 | 74 | 139 | 1.7 | 2.6 | 0.00 | 0.00 | 0.00 | 77 | 1014.3 |
| 20260906061349 | 73 | 139 | 3.5 | 5.2 | 0.00 | 0.00 | 0.00 | 79 | 1014.1 |
| 20260906060843 | 73 | 139 | 2.6 | 2.6 | 0.00 | 0.00 | 0.00 | 80 | 1014.1 |
| 20260906060340 | 73 | 167 | 0.9 | 0.9 | 0.00 | 0.00 | 0.00 | 81 | 1014.2 |
| 20260906055836 | 73 | 140 | 0.9 | 0.9 | 0.00 | 0.00 | 0.00 | 81 | 1014.5 |
| 20260906055332 | 73 | 159 | 0.9 | 0.9 | 0.00 | 0.00 | 0.00 | 82 | 1014.2 |
| 20260906054826 | 73 | 143 | 0.9 | 0.9 | 0.00 | 0.00 | 0.00 | 82 | 1014.2 |
| 20260906054321 | 73 | 143 | 1.7 | 1.7 | 0.00 | 0.00 | 0.00 | 82 | 1014.1 |
| 20260906053818 | 73 | 132 | 0.0 | 0.9 | 0.00 | 0.00 | 0.00 | 82 | 1014.3 |
| 20260906053314 | 73 | 132 | 0.0 | 0.0 | 0.00 | 0.00 | 0.00 | 82 | 1014.4 |
| 20260906052808 | 73 | 132 | 0.0 | 0.0 | 0.00 | 0.00 | 0.00 | 82 | 1014.2 |
| 20260906052306 | 73 | 134 | 0.0 | 0.0 | 0.00 | 0.00 | 0.00 | 82 | 1014.4 |
| 20260906051802 | 73 | 132 | 0.0 | 0.0 | 0.00 | 0.00 | 0.00 | 81 | 1014.5 |
| 20260906051301 | 73 | 125 | 0.0 | 0.0 | 0.00 | 0.00 | 0.00 | 82 | 1014.5 |
| 20260906050756 | 73 | 125 | 0.0 | 0.0 | 0.00 | 0.00 | 0.00 | 81 | 1014.5 |
| 20260906050252 | 73 | 132 | 0.0 | 0.0 | 0.00 | 0.00 | 0.00 | 81 | 1014.4 |
| 20260906045750 | 74 | 136 | 0.0 | 0.0 | 0.00 | 0.00 | 0.00 | 81 | 1014.3 |
| 20260906045245 | 74 | 133 | 0.0 | 0.0 | 0.00 | 0.00 | 0.00 | 81 | 1014.6 |
| 20260906044741 | 74 | 134 | 0.0 | 0.0 | 0.00 | 0.00 | 0.00 | 80 | 1014.4 |
| 20260906044236 | 74 | 137 | 0.0 | 0.0 | 0.00 | 0.00 | 0.00 | 80 | 1014.3 |
| 20260906043732 | 74 | 141 | 0.0 | 0.9 | 0.00 | 0.00 | 0.00 | 80 | 1014.4 |
| 20260906043227 | 75 | 132 | 0.0 | 0.0 | 0.00 | 0.00 | 0.00 | 79 | 1014.3 |
| 20260906042727 | 75 | 139 | 0.0 | 0.0 | 0.00 | 0.00 | 0.00 | 79 | 1014.2 |
| 20260906042225 | 75 | 129 | 0.0 | 0.0 | 0.00 | 0.00 | 0.00 | 78 | 1014.2 |
| 20260906041721 | 76 | 80 | 0.0 | 0.0 | 0.00 | 0.00 | 0.00 | 77 | 1014.2 |
| 20260906041216 | 76 | 121 | 0.0 | 0.0 | 0.00 | 0.00 | 0.00 | 77 | 1014.4 |
| 20260906040712 | 76 | 121 | 0.0 | 0.0 | 0.00 | 0.00 | 0.00 | 76 | 1014.3 |
| 20260906040207 | 77 | 111 | 0.0 | 0.0 | 0.00 | 0.00 | 0.00 | 75 | 1014.1 |
| 20260906035703 | 77 | 135 | 1.7 | 2.6 | 0.00 | 0.00 | 0.00 | 74 | 1014.4 |
| 20260906035159 | 77 | 165 | 0.9 | 1.7 | 0.00 | 0.00 | 0.00 | 75 | 1014.1 |
| 20260906034659 | 77 | 187 | 0.9 | 0.9 | 0.00 | 0.00 | 0.00 | 74 | 1014.0 |
| 20260906034154 | 77 | 196 | 0.9 | 0.9 | 0.00 | 0.00 | 0.00 | 74 | 1013.9 |
| 20260906033649 | 77 | 173 | 1.7 | 1.7 | 0.00 | 0.00 | 0.00 | 74 | 1013.8 |
| 20260906033144 | 77 | 159 | 1.7 | 1.7 | 0.00 | 0.00 | 0.00 | 74 | 1013.9 |
| 20260906032641 | 77 | 108 | 0.9 | 1.7 | 0.00 | 0.00 | 0.00 | 75 | 1014.0 |
| 20260906032140 | 76 | 151 | 0.9 | 0.9 | 0.00 | 0.00 | 0.00 | 75 | 1013.8 |
| 20260906031636 | 76 | 128 | 0.0 | 0.9 | 0.00 | 0.00 | 0.00 | 76 | 1013.8 |
| 20260906031131 | 77 | 124 | 0.0 | 0.9 | 0.00 | 0.00 | 0.00 | 75 | 1014.1 |
| 20260906030630 | 77 | 125 | 0.0 | 0.9 | 0.00 | 0.00 | 0.00 | 75 | 1013.7 |
| 20260906030126 | 77 | 123 | 0.9 | 0.9 | 0.00 | 0.00 | 0.00 | 74 | 1013.9 |
| 20260906025625 | 77 | 165 | 2.6 | 2.6 | 0.00 | 0.00 | 0.00 | 73 | 1013.7 |
| 20260906025124 | 77 | 101 | 0.9 | 0.9 | 0.00 | 0.00 | 0.00 | 74 | 1013.8 |
| 20260906024619 | 78 | 177 | 1.7 | 1.7 | 0.00 | 0.00 | 0.00 | 74 | 1013.8 |
| 20260906024113 | 77 | 158 | 2.6 | 2.6 | 0.00 | 0.00 | 0.00 | 75 | 1013.2 |
| 20260906023609 | 77 | 172 | 0.9 | 1.7 | 0.00 | 0.00 | 0.00 | 75 | 1013.4 |
| 20260906023103 | 78 | 158 | 0.9 | 1.7 | 0.00 | 0.00 | 0.00 | 74 | 1013.4 |
| 20260906022559 | 78 | 156 | 0.9 | 1.7 | 0.00 | 0.00 | 0.00 | 74 | 1013.3 |
| 20260906022054 | 78 | 151 | 0.9 | 0.9 | 0.00 | 0.00 | 0.00 | 74 | 1013.3 |
| 20260906021550 | 78 | 198 | 0.9 | 1.7 | 0.00 | 0.00 | 0.00 | 74 | 1013.4 |
| 20260906021048 | 78 | 151 | 0.9 | 1.7 | 0.00 | 0.00 | 0.00 | 74 | 1013.3 |
| 20260906020543 | 79 | 155 | 0.9 | 1.7 | 0.00 | 0.00 | 0.00 | 73 | 1013.1 |
| 20260906020042 | 80 | 138 | 1.7 | 2.6 | 0.00 | 0.00 | 0.00 | 72 | 1013.2 |
| 20260906015541 | 80 | 127 | 1.7 | 2.6 | 0.00 | 0.00 | 0.00 | 71 | 1013.0 |
| 20260906015036 | 80 | 144 | 1.7 | 2.6 | 0.00 | 0.00 | 0.00 | 70 | 1013.1 |
| 20260906014531 | 80 | 137 | 1.7 | 1.7 | 0.00 | 0.00 | 0.00 | 71 | 1013.0 |
| 20260906014027 | 80 | 172 | 0.9 | 1.7 | 0.00 | 0.00 | 0.00 | 70 | 1013.1 |
| 20260906013522 | 81 | 154 | 1.7 | 2.6 | 0.00 | 0.00 | 0.00 | 70 | 1013.0 |
| 20260906013018 | 81 | 137 | 1.7 | 2.6 | 0.00 | 0.00 | 0.00 | 70 | 1013.2 |
| 20260906012513 | 81 | 193 | 1.7 | 2.6 | 0.00 | 0.00 | 0.00 | 70 | 1012.9 |
| 20260906012011 | 82 | 141 | 1.7 | 2.6 | 0.00 | 0.00 | 0.00 | 70 | 1012.9 |
| 20260906011508 | 82 | 164 | 2.6 | 2.6 | 0.00 | 0.00 | 0.00 | 70 | 1012.7 |
| 20260906011002 | 82 | 138 | 0.9 | 1.7 | 0.00 | 0.00 | 0.00 | 73 | 1012.8 |
| 20260906010457 | 82 | 133 | 0.0 | 0.0 | 0.00 | 0.00 | 0.00 | 75 | 1012.6 |
| 20260906005954 | 82 | 134 | 0.0 | 0.0 | 0.00 | 0.00 | 0.00 | 75 | 1012.9 |
| 20260906005453 | 83 | 133 | 0.0 | 0.0 | 0.00 | 0.00 | 0.00 | 74 | 1012.7 |
| 20260906004951 | 83 | 135 | 0.0 | 0.0 | 0.00 | 0.00 | 0.00 | 74 | 1012.7 |
| 20260906004451 | 84 | 134 | 0.0 | 0.0 | 0.00 | 0.00 | 0.00 | 73 | 1012.7 |
| 20260906003947 | 84 | 134 | 0.0 | 0.0 | 0.00 | 0.00 | 0.00 | 73 | 1012.6 |
| 20260906003442 | 85 | 134 | 0.0 | 0.0 | 0.00 | 0.00 | 0.00 | 72 | 1012.4 |
| 20260906002937 | 85 | 92 | 0.0 | 0.9 | 0.00 | 0.00 | 0.00 | 73 | 1012.4 |
| 20260906002436 | 85 | 154 | 0.0 | 0.9 | 0.00 | 0.00 | 0.00 | 73 | 1012.6 |
| 20260906001932 | 86 | 102 | 0.9 | 0.9 | 0.00 | 0.00 | 0.00 | 73 | 1012.7 |
| 20260906001428 | 86 | 105 | 0.0 | 0.9 | 0.00 | 0.00 | 0.00 | 73 | 1012.9 |
| 20260906000923 | 86 | 73 | 0.9 | 0.9 | 0.00 | 0.00 | 0.00 | 72 | 1012.6 |
| 20260906000418 | 87 | 110 | 0.0 | 0.0 | 0.00 | 0.00 | 0.00 | 72 | 1012.6 |
| 20260905235913 | 87 | 78 | 0.0 | 0.9 | 0.00 | 0.00 | 0.00 | 71 | 1012.9 |
| 20260905235407 | 87 | 100 | 0.9 | 0.9 | 0.00 | 0.00 | 0.00 | 70 | 1012.5 |
| 20260905234902 | 88 | 50 | 0.9 | 0.9 | 0.00 | 0.00 | 0.00 | 69 | 1012.6 |
| 20260905234357 | 88 | 99 | 0.0 | 0.9 | 0.00 | 0.00 | 0.00 | 68 | 1012.6 |
| 20260905233852 | 89 | 124 | 0.9 | 0.9 | 0.00 | 0.00 | 0.00 | 68 | 1012.7 |
| 20260905233347 | 90 | 112 | 0.9 | 1.7 | 0.00 | 0.00 | 0.00 | 66 | 1012.6 |
| 20260905232847 | 91 | 80 | 1.7 | 1.7 | 0.00 | 0.00 | 0.00 | 64 | 1012.5 |
| 20260905232343 | 91 | 111 | 0.9 | 1.7 | 0.00 | 0.00 | 0.00 | 63 | 1012.5 |
| 20260905231838 | 92 | 55 | 1.7 | 1.7 | 0.00 | 0.00 | 0.00 | 62 | 1012.3 |
| 20260905231339 | 92 | 58 | 1.7 | 2.6 | 0.00 | 0.00 | 0.00 | 61 | 1012.5 |
| 20260905230836 | 92 | 72 | 0.9 | 0.9 | 0.00 | 0.00 | 0.00 | 60 | 1012.4 |
| 20260905230333 | 92 | 76 | 0.9 | 1.7 | 0.00 | 0.00 | 0.00 | 61 | 1012.5 |
| 20260905225832 | 92 | 89 | 1.7 | 1.7 | 0.00 | 0.00 | 0.00 | 61 | 1012.4 |
| 20260905225327 | 92 | 110 | 0.9 | 1.7 | 0.00 | 0.00 | 0.00 | 62 | 1012.0 |
| 20260905224822 | 92 | 141 | 2.6 | 2.6 | 0.00 | 0.00 | 0.00 | 61 | 1012.2 |
| 20260905224318 | 92 | 181 | 0.9 | 1.7 | 0.00 | 0.00 | 0.00 | 60 | 1012.3 |
| 20260905223818 | 92 | 84 | 1.7 | 1.7 | 0.00 | 0.00 | 0.00 | 62 | 1012.3 |
| 20260905223315 | 91 | 19 | 0.9 | 1.7 | 0.00 | 0.00 | 0.00 | 62 | 1012.3 |
| 20260905222810 | 93 | 55 | 1.7 | 1.7 | 0.00 | 0.00 | 0.00 | 62 | 1012.4 |
| 20260905222309 | 93 | 31 | 0.9 | 0.9 | 0.00 | 0.00 | 0.00 | 60 | 1012.6 |
| 20260905221805 | 92 | 159 | 1.7 | 2.6 | 0.00 | 0.00 | 0.00 | 59 | 1012.5 |
| 20260905221302 | 92 | 145 | 1.7 | 4.3 | 0.00 | 0.00 | 0.00 | 62 | 1012.5 |
| 20260905220757 | 91 | 74 | 2.6 | 2.6 | 0.00 | 0.00 | 0.00 | 63 | 1012.7 |
| 20260905220254 | 92 | 64 | 2.6 | 2.6 | 0.00 | 0.00 | 0.00 | 62 | 1012.8 |
| 20260905215752 | 93 | 58 | 2.6 | 4.3 | 0.00 | 0.00 | 0.00 | 57 | 1012.8 |
| 20260905215249 | 92 | 118 | 0.0 | 0.9 | 0.00 | 0.00 | 0.00 | 58 | 1012.6 |
| 20260905214744 | 92 | 84 | 2.6 | 5.2 | 0.00 | 0.00 | 0.00 | 58 | 1012.9 |
| 20260905214240 | 92 | 100 | 3.5 | 6.1 | 0.00 | 0.00 | 0.00 | 60 | 1012.7 |
| 20260905213735 | 92 | 182 | 2.6 | 2.6 | 0.00 | 0.00 | 0.00 | 60 | 1013.0 |
| 20260905213231 | 92 | 352 | 2.6 | 2.6 | 0.00 | 0.00 | 0.00 | 60 | 1013.1 |
| 20260905212726 | 92 | 104 | 2.6 | 2.6 | 0.00 | 0.00 | 0.00 | 58 | 1013.1 |
| 20260905212225 | 92 | 120 | 2.6 | 2.6 | 0.00 | 0.00 | 0.00 | 58 | 1013.1 |
| 20260905211725 | 93 | 166 | 1.7 | 1.7 | 0.00 | 0.00 | 0.00 | 58 | 1013.2 |
| 20260905211220 | 92 | 76 | 0.0 | 0.9 | 0.00 | 0.00 | 0.00 | 57 | 1013.3 |
| 20260905210717 | 92 | 118 | 2.6 | 4.3 | 0.00 | 0.00 | 0.00 | 56 | 1013.7 |
| 20260905210212 | 93 | 41 | 1.7 | 2.6 | 0.00 | 0.00 | 0.00 | 55 | 1013.4 |
| 20260905205711 | 94 | 98 | 1.7 | 4.3 | 0.00 | 0.00 | 0.00 | 51 | 1013.6 |
| 20260905205210 | 94 | 77 | 1.7 | 2.6 | 0.00 | 0.00 | 0.00 | 53 | 1013.7 |
| 20260905204705 | 93 | 132 | 0.9 | 1.7 | 0.00 | 0.00 | 0.00 | 53 | 1013.7 |
| 20260905204200 | 93 | 80 | 2.6 | 4.3 | 0.00 | 0.00 | 0.00 | 52 | 1013.7 |
| 20260905203654 | 92 | 94 | 2.6 | 4.3 | 0.00 | 0.00 | 0.00 | 51 | 1013.9 |
| 20260905203150 | 93 | 77 | 2.6 | 4.3 | 0.00 | 0.00 | 0.00 | 53 | 1014.2 |
| 20260905202645 | 92 | 52 | 4.3 | 7.0 | 0.00 | 0.00 | 0.00 | 52 | 1013.9 |
| 20260905202140 | 92 | 119 | 2.6 | 5.2 | 0.00 | 0.00 | 0.00 | 53 | 1013.9 |
| 20260905201636 | 91 | 58 | 1.7 | 2.6 | 0.00 | 0.00 | 0.00 | 52 | 1014.1 |